[[{"header":{"parameterUnit":"m.s-1","parameterCategory":1,"la1":30.2991,"la2":30.254,"lo1":-89.0895,"lo2":-89.0444,"dy":0.0017,"dx":0.0017,"nx":28,"ny":28,"refTime":"2024-12-02T09:00:00:Z","depth":0,"parameterNumber":2,"parameterNumberName":"U-component_of_WINDS"},"data":[0,0,0,0,0,0,0,0,0,0,0,0,0,0,0,0,0,0,0,0,0,0,0,0,0,0,0,0,0,0,0,0,0,0,0,0,0,0,0,0,0,0,0,0,0,0,0,0,0,0,0,0,0,0,0,0,0,0,-0.9434,-0.9434,0,-0.9479,-0.948,-0.948,-0.9436,-0.9434,-0.9432,-0.943,-0.9478,-0.9481,-0.9484,0,0,0,0,0,0,0,0,0,0,0,0,0,-0.9309,-0.9311,-0.9434,-0.9434,-0.9435,-0.9479,-0.948,-0.948,-0.9436,-0.9434,-0.9432,-0.943,-0.9477,-0.9481,-0.9484,0,0,0,0,0,0,0,0,0,0,0,0,0,-0.9359,-0.9312,-0.9433,-0.9418,-0.9417,-0.9479,-0.948,-0.948,-0.9436,-0.9434,-0.9431,-0.9429,-0.9476,-0.948,-0.9485,-0.9564,0,0,-0.9498,-0.95,0,0,0,0,0,0,0,0,-0.9357,-0.9364,-0.942,-0.9419,-0.9418,-0.9449,-0.9453,-0.9509,-0.9437,-0.9429,-0.943,-0.9427,-0.9471,-0.9475,-0.949,-0.9567,-0.9569,-0.9498,-0.9501,-0.9503,-0.9504,0,0,0,0,0,0,0,-0.9353,-0.9362,-0.9452,-0.942,-0.942,-0.9409,-0.9413,-0.9463,-0.9464,-0.943,-0.9426,-0.9432,-0.947,-0.9486,-0.949,-0.9569,-0.9498,-0.9502,-0.9505,-0.9506,-0.9713,-0.9716,0,0,0,0,0,0,-0.9351,-0.9359,-0.945,-0.9453,-0.938,-0.9413,-0.9418,-0.9442,-0.9463,-0.9464,-0.9435,-0.943,-0.9479,-0.9485,-0.9492,-0.9587,-0.9503,-0.9507,-0.9509,-0.9711,-0.9714,-0.9717,0,0,0,0,0,0,-0.9349,-0.936,-0.9448,-0.9405,-0.9416,-0.9418,-0.9445,-0.9444,-0.946,-0.9467,-0.9467,-0.9451,-0.9478,-0.9486,-0.9547,-0.9588,-0.9509,-0.9513,-0.9707,-0.9712,-0.9716,-0.9778,0,0,0,0,0,0,-0.9345,-0.9359,-0.939,-0.9406,-0.9418,-0.9502,-0.9448,-0.9447,-0.9467,-0.9462,-0.9482,-0.9483,-0.9476,-0.954,-0.9551,-0.9593,-0.9516,-0.9704,-0.9709,-0.9714,-0.9772,-0.9784,-0.9794,0,0,0,0,0,-0.9341,-0.9406,-0.9391,-0.9403,-0.9456,-0.9505,-0.9512,-0.9502,-0.9471,-0.9502,-0.9506,-0.9483,-0.9581,-0.9547,-0.9558,-0.9602,-0.9701,-0.9708,-0.9714,-0.9767,-0.9781,-0.9793,0,0,0,0,0,0,-0.9395,-0.9408,-0.9392,-0.9464,-0.9484,-0.9497,-0.9536,-0.9517,-0.9547,-0.9541,-0.9527,-0.9532,-0.9597,-0.9605,-0.9566,-0.968,-0.9636,-0.9645,-0.9673,-0.9686,-0.9697,-0.9694,-0.952,0,0,0,0,0,-0.9414,-0.9453,-0.9462,-0.9525,-0.9535,-0.9534,-0.9555,-0.9545,-0.9565,-0.9574,-0.9583,-0.9603,-0.9639,-0.9663,-0.9696,-0.9772,-0.9776,-0.9808,-0.9819,-0.9827,-0.9836,-0.9877,-0.9892,-0.9738,-0.9738,-0.9738,0,0,-0.9457,-0.9468,-0.9494,-0.9536,-0.955,-0.959,-0.9541,-0.9586,-0.9616,-0.958,-0.9639,-0.9646,-0.9667,-0.9737,-0.9767,-0.9746,-0.9879,-0.9836,-0.9843,-0.9847,-0.9885,-0.99,-0.9913,-0.9743,-0.9742,-0.9741,0,0,-0.9554,-0.9567,-0.962,-0.9635,-0.9657,-0.9655,-0.9668,-0.9684,-0.9688,-0.9745,-0.972,-0.9755,-0.9816,-0.9833,-0.985,-0.9952,-0.9931,-0.9963,-1.002,-1.006,-1.0072,-1.0083,-1.012,-1.0133,-0.9971,-0.9971,-0.9971,0,-0.9604,-0.9664,-0.965,-0.9697,-0.9716,-0.9685,-0.9739,-0.9754,-0.9786,-0.98,-0.9774,-0.9851,-0.9863,-0.9936,-0.9961,-0.9975,-0.9989,-0.9961,-1.0071,-1.0082,-1.0092,-1.0127,-1.0141,-0.9975,-0.9974,-0.9974,-0.9973,0,-0.9724,-0.9766,-0.9806,-0.9837,-0.9861,-0.9911,-0.9905,-0.993,-0.9918,-0.9919,-0.9978,-0.9992,-1.0027,-1.0043,-1.0032,-1.0114,-1.01,-1.0073,-1.0029,-1.011,-1.0143,-1.0157,-0.998,-0.9979,-0.9978,-0.9977,0,0,-0.986,-0.9881,-0.9896,-0.991,-0.9931,-0.9962,-1.001,-1.0044,-1.0067,-1.0089,-1.0129,-1.0181,-1.0156,-1.0175,-1.0165,-1.02,-1.0281,-1.0169,-1.0169,-1.0191,-1.0373,-1.0394,-1.041,-1.0266,-1.0269,-1.0271,-1.0371,0,-0.9959,-1.0043,-1.0031,-1.0112,-1.015,-1.012,-1.0162,-1.0179,-1.0181,-1.0213,-1.0215,-1.0252,-1.0216,-1.0227,-1.026,-1.0264,-1.0318,-1.0257,-1.0305,-1.0307,-1.0302,-1.0427,-1.045,-1.0544,-1.0384,-1.0386,-1.0388,0,-1.0086,-1.0113,-1.0197,-1.0211,-1.0227,-1.0265,-1.0295,-1.0326,-1.0344,-1.0343,-1.0363,-1.0347,-1.0395,-1.0348,-1.0414,-1.0373,-1.0391,-1.0396,-1.0399,-1.0405,-1.0353,-1.0437,-1.0573,-1.0588,-1.0408,-1.0406,-1.0405,0,-1.0178,-1.0234,-1.0292,-1.0304,-1.0322,-1.0349,-1.0358,-1.0374,-1.0395,-1.042,-1.0434,-1.0465,-1.0482,-1.0507,-1.0499,-1.0465,-1.0567,-1.0519,-1.0568,-1.0568,-1.0592,-1.0591,-1.0735,-1.0602,-1.0601,-1.0601,-1.0601,0,-1.0291,-1.0344,-1.0333,-1.0369,-1.0427,-1.0413,-1.0471,-1.0476,-1.049,-1.0526,-1.0501,-1.0536,-1.0523,-1.0556,-1.055,-1.0606,-1.0614,-1.0614,-1.0612,-1.0618,-1.0618,-1.0631,-1.0625,-1.0605,-1.0604,-1.0603,-1.0603,0,-1.0404,-1.0399,-1.046,-1.0471,-1.0475,-1.0518,-1.0527,-1.0561,-1.0559,-1.0605,-1.0615,-1.0614,-1.0652,-1.0646,-1.0688,-1.0684,-1.0754,-1.0743,-1.0748,-1.0746,-1.0795,-1.0791,-1.0954,-1.0974,-1.0827,-1.0828,-1.0829,0,-1.0477,-1.0518,-1.0533,-1.0555,-1.0565,-1.0602,-1.0622,-1.0609,-1.0632,-1.0655,-1.0686,-1.0721,-1.0749,-1.0811,-1.0814,-1.0846,-1.0837,-1.0891,-1.0842,-1.0845,-1.0839,-1.0837,-1.0842,-1.0902,-1.0904,-1.0905,-1.0906,0,-1.0609,-1.0604,-1.0635,-1.0665,-1.069,-1.0713,-1.0734,-1.0753,-1.0742,-1.0769,-1.0807,-1.0828,-1.0871,-1.0907,-1.0936,-1.0945,-1.0924,-1.0921,-1.0934,-1.0941,-1.0943,-1.0944,-1.0776,-1.0918,-1.0917,-1.0916,-1.0916,-1.0915,-1.0705,-1.0739,-1.0755,-1.079,-1.0804,-1.0824,-1.0855,-1.0858,-1.0889,-1.0923,-1.0913,-1.0956,-1.0972,-1.101,-1.1022,-1.1055,-1.1035,-1.1054,-1.1059,-1.1064,-1.1071,-1.0936,-1.1061,-1.106,-1.106,-1.106,-1.1059,0,-1.0836,-1.0844,-1.0877,-1.0906,-1.0934,-1.091,-1.0931,-1.0956,-1.0995,-1.1011,-1.1039,-1.1082,-1.1116,-1.1121,-1.1153,-1.1179,-1.1171,-1.1188,-1.1187,-1.119,-1.1086,-1.1072,-1.1195,-1.1195,-1.1195,-1.1195,-1.1195,-1.1195,-1.0908,-1.0964,-1.0961,-1.1024,-1.1032,-1.1074,-1.1088,-1.1106,-1.1119,-1.1169,-1.1197,-1.1199,-1.1211,-1.1244,-1.1274,-1.1274,-1.1288,-1.1309,-1.1306,-1.121,-1.1197,-1.1184,-1.1171,-1.1312,-1.1312,-1.1407,-1.1408,-1.1408]},{"header":{"parameterUnit":"m.s-1","parameterCategory":1,"la1":30.2991,"la2":30.254,"lo1":-89.0895,"lo2":-89.0444,"dy":0.0017,"dx":0.0017,"nx":28,"ny":28,"refTime":"2024-12-02T09:00:00:Z","depth":0,"parameterNumber":3,"parameterNumberName":"V-component_of_WINDS"},"data":[0,0,0,0,0,0,0,0,0,0,0,0,0,0,0,0,0,0,0,0,0,0,0,0,0,0,0,0,0,0,0,0,0,0,0,0,0,0,0,0,0,0,0,0,0,0,0,0,0,0,0,0,0,0,0,0,0,0,-4.8324,-4.8325,0,-4.8423,-4.8424,-4.8425,-4.8366,-4.8363,-4.836,-4.8357,-4.8453,-4.8458,-4.8463,0,0,0,0,0,0,0,0,0,0,0,0,0,-4.8079,-4.8083,-4.8324,-4.8325,-4.8326,-4.8423,-4.8424,-4.8425,-4.8366,-4.8363,-4.8359,-4.8356,-4.8452,-4.8458,-4.8464,0,0,0,0,0,0,0,0,0,0,0,0,0,-4.8182,-4.8085,-4.8324,-4.8309,-4.8308,-4.8422,-4.8424,-4.8426,-4.8367,-4.8363,-4.8358,-4.8355,-4.845,-4.8457,-4.8465,-4.8598,0,0,-4.8489,-4.8492,0,0,0,0,0,0,0,0,-4.8176,-4.8191,-4.831,-4.831,-4.831,-4.8378,-4.8373,-4.8483,-4.8368,-4.8345,-4.8357,-4.8352,-4.8431,-4.844,-4.8468,-4.8602,-4.8606,-4.8489,-4.8494,-4.8497,-4.85,0,0,0,0,0,0,0,-4.8169,-4.8186,-4.8363,-4.8311,-4.8311,-4.8295,-4.8305,-4.8393,-4.841,-4.8346,-4.8342,-4.8355,-4.843,-4.8461,-4.847,-4.8608,-4.8489,-4.8496,-4.8501,-4.8504,-4.8854,-4.8859,0,0,0,0,0,0,-4.8164,-4.8181,-4.836,-4.8366,-4.8231,-4.8303,-4.8314,-4.836,-4.8409,-4.8413,-4.8359,-4.8352,-4.8449,-4.8461,-4.8473,-4.8631,-4.8497,-4.8505,-4.8509,-4.885,-4.8855,-4.886,0,0,0,0,0,0,-4.8159,-4.818,-4.8356,-4.8272,-4.8293,-4.8312,-4.8364,-4.8364,-4.8394,-4.8419,-4.8421,-4.8387,-4.8446,-4.8462,-4.8567,-4.8633,-4.8508,-4.8515,-4.8844,-4.8851,-4.8858,-4.8949,0,0,0,0,0,0,-4.8152,-4.8179,-4.8231,-4.8274,-4.8298,-4.845,-4.8368,-4.8369,-4.8409,-4.8401,-4.8445,-4.8449,-4.8444,-4.8556,-4.8575,-4.8642,-4.8521,-4.8838,-4.8847,-4.8856,-4.894,-4.8958,-4.8973,0,0,0,0,0,-4.8143,-4.8252,-4.8234,-4.8256,-4.8364,-4.8454,-4.8468,-4.8462,-4.8414,-4.8466,-4.8481,-4.8447,-4.8623,-4.8567,-4.8588,-4.8658,-4.8834,-4.8845,-4.8855,-4.8932,-4.8954,-4.8973,0,0,0,0,0,0,-4.8214,-4.8257,-4.8238,-4.8363,-4.8406,-4.8444,-4.8509,-4.8486,-4.8541,-4.8532,-4.852,-4.8531,-4.8641,-4.866,-4.8597,-4.8789,-4.8721,-4.8736,-4.8772,-4.8794,-4.881,-4.8803,-4.8528,0,0,0,0,0,-4.8245,-4.8316,-4.8349,-4.8457,-4.8479,-4.8491,-4.853,-4.8522,-4.8565,-4.8582,-4.8605,-4.8646,-4.871,-4.8753,-4.8814,-4.8942,-4.895,-4.9001,-4.9018,-4.9031,-4.9044,-4.9113,-4.9135,-4.8895,-4.8895,-4.8894,0,0,-4.8308,-4.834,-4.8386,-4.8472,-4.8504,-4.8576,-4.8506,-4.8586,-4.8639,-4.8593,-4.8694,-4.8713,-4.8758,-4.8875,-4.8928,-4.8895,-4.9112,-4.9045,-4.9055,-4.9061,-4.9126,-4.9148,-4.9169,-4.8902,-4.89,-4.8899,0,0,-4.846,-4.8492,-4.8585,-4.8619,-4.8669,-4.8676,-4.8698,-4.874,-4.8751,-4.8853,-4.882,-4.8882,-4.8993,-4.9027,-4.9058,-4.9223,-4.9194,-4.9243,-4.933,-4.9397,-4.9416,-4.9433,-4.9491,-4.9512,-4.9256,-4.9256,-4.9256,0,-4.8531,-4.8642,-4.8635,-4.8718,-4.8757,-4.872,-4.8813,-4.8845,-4.8912,-4.8938,-4.89,-4.9039,-4.9067,-4.9191,-4.9232,-4.9259,-4.9282,-4.9238,-4.9414,-4.9431,-4.9446,-4.9501,-4.9523,-4.9262,-4.9261,-4.926,-4.926,0,-4.8727,-4.8804,-4.8872,-4.894,-4.8985,-4.9073,-4.9078,-4.9125,-4.9113,-4.9123,-4.9227,-4.9259,-4.9325,-4.9354,-4.9342,-4.9477,-4.9454,-4.9416,-4.9347,-4.9475,-4.9527,-4.9548,-4.927,-4.9268,-4.9266,-4.9265,0,0,-4.8926,-4.8989,-4.9014,-4.9044,-4.9096,-4.9155,-4.924,-4.9306,-4.9346,-4.9393,-4.9463,-4.9558,-4.9523,-4.9559,-4.955,-4.9609,-4.9737,-4.9563,-4.9564,-4.9594,-4.9885,-4.9914,-4.9939,-4.9718,-4.9722,-4.9725,-4.9881,0,-4.9081,-4.9232,-4.9229,-4.9368,-4.9438,-4.9404,-4.9478,-4.9517,-4.9529,-4.9588,-4.96,-4.9668,-4.9617,-4.9638,-4.9695,-4.9709,-4.9795,-4.9698,-4.9781,-4.9784,-4.9771,-4.9966,-4.9996,-5.0142,-4.9901,-4.9905,-4.9907,0,-4.9282,-4.9338,-4.9485,-4.9527,-4.9556,-4.9623,-4.9683,-4.9741,-4.9784,-4.9788,-4.9829,-4.9811,-4.9895,-4.9825,-4.994,-4.9874,-4.9907,-4.992,-4.9925,-4.9932,-4.9853,-4.9977,-5.0189,-5.0211,-4.9939,-4.9937,-4.9934,0,-4.9412,-4.9524,-4.9626,-4.9652,-4.9704,-4.9751,-4.9774,-4.9813,-4.9853,-4.9905,-4.9931,-4.9991,-5.0024,-5.0071,-5.0069,-5.0018,-5.0186,-5.0115,-5.019,-5.019,-5.0227,-5.0224,-5.0446,-5.0249,-5.0249,-5.0249,-5.0248,0,-4.9586,-4.9677,-4.9685,-4.9748,-4.9848,-4.9843,-4.9941,-4.9959,-4.9994,-5.0059,-5.0032,-5.0093,-5.0087,-5.0148,-5.0147,-5.0242,-5.0257,-5.0261,-5.026,-5.0264,-5.0263,-5.0285,-5.0275,-5.0254,-5.0253,-5.0252,-5.0251,0,-4.9748,-4.9757,-4.9866,-4.9906,-4.9918,-4.9991,-5.0024,-5.0082,-5.0092,-5.0173,-5.0192,-5.0207,-5.0276,-5.028,-5.0359,-5.0359,-5.0474,-5.0461,-5.046,-5.0458,-5.0532,-5.0525,-5.0776,-5.0808,-5.0591,-5.0593,-5.0595,0,-4.9858,-4.9927,-4.9975,-5.0017,-5.0044,-5.0112,-5.0153,-5.0149,-5.0193,-5.0247,-5.0299,-5.0366,-5.042,-5.0533,-5.0549,-5.061,-5.0598,-5.0682,-5.0607,-5.0608,-5.0599,-5.0594,-5.0601,-5.0696,-5.0699,-5.0701,-5.0702,0,-5.0051,-5.0053,-5.0114,-5.0177,-5.0228,-5.0277,-5.0322,-5.0357,-5.0359,-5.0409,-5.0481,-5.0523,-5.0605,-5.0672,-5.0731,-5.0753,-5.0728,-5.0726,-5.0746,-5.075,-5.0747,-5.0749,-5.05,-5.072,-5.0718,-5.0717,-5.0716,-5.0715,-5.019,-5.025,-5.0294,-5.0362,-5.0397,-5.044,-5.0497,-5.0514,-5.0575,-5.0643,-5.0636,-5.0716,-5.0756,-5.0833,-5.0859,-5.092,-5.0891,-5.0921,-5.0928,-5.0936,-5.0943,-5.0738,-5.0931,-5.093,-5.093,-5.0929,-5.0929,0,-5.0382,-5.0408,-5.0472,-5.0537,-5.0591,-5.0565,-5.0614,-5.066,-5.0731,-5.0771,-5.0825,-5.0907,-5.0972,-5.0994,-5.1056,-5.1101,-5.1091,-5.1117,-5.1113,-5.1119,-5.0966,-5.0942,-5.1124,-5.1124,-5.1124,-5.1124,-5.1124,-5.1124,-5.0488,-5.0588,-5.0595,-5.0711,-5.0735,-5.0815,-5.0845,-5.0884,-5.0916,-5.101,-5.1064,-5.1078,-5.1111,-5.1175,-5.1233,-5.1237,-5.1261,-5.1292,-5.1292,-5.1149,-5.1129,-5.1111,-5.1088,-5.1298,-5.1298,-5.1439,-5.1441,-5.1442]}]]